Regional Weather Roundup
Issued by NWS

Home | Current Version | Previous Version | Graphics & Text | Print | Product List | Glossary On
Versions: 1 2 3 4 5 6 7 8 9 10 11 12 13 14 15 16 17 18 19 20 21 22 23 24 25 26 27 28 29 30 31 32 33 34 35 36 37 38 39 40 41 42 43 44 45 46 47 48 49 50
000
ASUS45 KSLC 151910
RWRUT

UTAH REGIONAL WEATHER ROUNDUP
NATIONAL WEATHER SERVICE SALT LAKE CITY UT
100 PM MDT MON SEP 15 2014

UTZ001>011-023>025-152000-

NORTHERN UTAH

CITY           SKY/WX    TMP DP  RH WIND       PRES   REMARKS
HILL AFB       MOSUNNY   81  43  25 S5        30.16S
LOGAN          SUNNY     80  48  32 W6        30.12F
OGDEN          SUNNY     81  45  28 VRB5      30.13F
PROVO AIRPORT  MOSUNNY   79  50  36 VRB5      30.16F
SALT LAKE CITY MOSUNNY   84  37  18 CALM      30.11S
VERNAL         SUNNY     77  43  29 CALM      30.22F
WENDOVER       SUNNY     81  32  17 SE7       30.13F
HEBER CITY     SUNNY     75  43  31 CALM      30.21F
WEST JORDAN    SUNNY     82  37  20 SE12      30.15S

$$

UTZ012>022-026-027-152000-

SOUTHERN UTAH

CITY           SKY/WX    TMP DP  RH WIND       PRES   REMARKS
BRYCE CANYON   SUNNY     69  43  38 SE6       30.37F
CEDAR CITY     SUNNY     82  36  19 W5        30.21S
MILFORD        SUNNY     87  41  19 S12       30.15F
MOAB/CYNLANDS  SUNNY     84  39  20 SE7       30.14F
PRICE          MOSUNNY   80  35  19 SW7       30.25F
ST GEORGE      CLEAR     86  45  23 N3        30.05F
KANAB            N/A     84  39  20 E3        30.19F

$$

REGIONAL REPORTS     COLORADO/ARIZONA

CITY           SKY/WX    TMP DP  RH WIND       PRES   REMARKS
CRAIG, CO      SUNNY     77  37  23 CALM      30.28F
GRAND JUNCTION MOSUNNY   80  40  23 VRB3      30.19F
RIFLE          SUNNY     78  39  24 SW5       30.23F
MONTROSE       MOSUNNY   81  45  28 NW5       30.26F
CORTEZ         SUNNY     83  40  21 VRB3      30.25F
PAGE, AZ       SUNNY     86  43  22 NE5       30.13F
GRAND CANYON   MOSUNNY   76  45  33 NE10      30.29F
KINGMAN        SUNNY     93  42  17 N5        30.05F
FLAGSTAFF      SUNNY     77  45  32 E10       30.32F

$$

REGIONAL REPORTS    NEVADA/IDAHO/WYOMING

CITY           SKY/WX    TMP DP  RH WIND       PRES   REMARKS
LAS VEGAS, NV  MOSUNNY   96  47  18 CALM      29.91F HX  92
ELY            MOSUNNY   81  35  19 S7        30.23F
ELKO           MOSUNNY   81  28  14 N3        30.17F
POCATELLO, ID  MOSUNNY   78  35  21 VRB3      30.15F
BURLEY         SUNNY     79  40  24 SE5       30.10F
EVANSTON, WY   MOSUNNY   76  35  22 SW12G17   30.31F
ROCK SPRINGS   SUNNY     75  32  20 W7        30.30F

$$


USA.gov is the U.S. government's official web portal to all federal, state and local government web resources and services.